Rallye Mare e Machja 2017
Le 10,11, 12 Novembre
1 1 LEANDRI Jean-Mathieu/GORGUILO Anthony Skoda Fabia R 5 10:11,5 83km/h
2 2 GORDON Jean Pierre/GORDON Fabrice Ford Fiesta R 5 10:22,0 +00:10,5 +00:10,5
3 52 RENUCCI Pierre-Paul/MAESTRONI Céline Renault Clio Rs Ragnotti N 3 10:42,0 +00:30,5 +00:20,0
4 8 GALEANI Jean-Joseph/LEONARDI Pierre-Marien Mitsubishi Evo 9 R 4 10:46,4 +00:34,9 +00:04,4
5 7 LEFEBVRE Frédéric/DINI Gilbert Mitsubishi Evo 9 FA 8 10:49,2 +00:37,7 +00:02,8
6 26 ANDREUCCI Frédéric/LECA Nicolas Renault Clio 16V FA 6K 10:52,7 +00:41,2 +00:03,5
7 41 FIORI Jean-Antoine/TAVERA Julien Citroën C2 R2 R 2 10:57,8 +00:46,3 +00:05,1
8 49 MUSELLI Jean-Philippe/MASSON Elodie Renault Clio FN 3 10:58,9 +00:47,4 +00:01,1
9 12 LANGIANI Patrick/D'ULIVO Jean-Francois Renault F2 14 10:59,2 +00:47,7 +00:00,3
10 40 ALERINI Paul/BARICHELLA Tony Peugeot 208 Vti R 2 11:02,6 +00:51,1 +00:03,4
11 28 VANNUCCI Louis/DE BARTOLO Fabrice Citroën Saxo S1600 FA 6K 11:05,5 +00:54,0 +00:02,9
12 14 GAMBARELLI Anghjulu/CASANOVA Miguel Renault Clio F2 14 11:07,8 +00:56,3 +00:02,3
13 51 DE LA FOATA Paul/TERRONI Cédric Renault Clio Ragnotti N 3 11:13,8 +01:02,3 +00:06,0
14 50 CHASSAING Philippe/BACCHIOLELLI Jean-Baptiste Renault Clio Ragnotti FN 3 11:16,8 +01:05,3 +00:03,0
15 4 PISANO Mickaël/BERTHOLLE Olivier Ford Fiesta R 5 11:18,6 +01:07,1 +00:01,8
16 43 SERRA Dominique/BURESI Francois-Xavier Peugeot 208 Vti R 2 11:27,0 +01:15,5 +00:08,4
17 29 GIORGI Fabrice/BEILL Raphaël Peugeot 106 Maxi FA 6K 11:27,4 +01:15,9 +00:00,4
18 58 RENUCCI Antoine/SIMEONI Jean-Marc Renault Clio Ragnotti FN 3 11:42,3 +01:30,8 +00:14,9
19 57 RASIGNI Romain/JOVER Denis Renault Clio Ragnotti N 3 11:42,5 +01:31,0 +00:00,2
20 46 BURESI Adrien/BURESI Romain Peugeot 208 R2 R 2 11:43,4 +01:31,9 +00:00,9
21 45 BUCCI Pierre-Laurent/CAVIGLIOLI Caroline Citroën C2 R2 Max R 2 11:45,2 +01:33,7 +00:01,8
22 5 RENUCCI Kathia/PAOLINI Angélique Peugeot 207 S2000 A 7S 11:46,3 +01:34,8 +00:01,1
23 10 ROSSI Yannick/VOLPEI Baptiste Mitsubishi Lancer Evo 9 FN 4 11:46,6 +01:35,1 +00:00,3
24 32 BROQUET John/STEFANAGGI Antoine Peugeot 106 S16 A 6K 11:47,5 +01:36,0 +00:00,9
25 34 MARIANI Anthony/HELM Vivien Peugeot 206 Xs FA 6K 11:48,9 +01:37,4 +00:01,4
26 59 MARCHETTI Michel/MAUREL Virginie Citroën Saxo Vts F2 13 11:49,6 +01:38,1 +00:00,7
27 63 APPIETTO Richard/ALTANA Patrick Peugeot 106 FA 6 11:54,8 +01:43,3 +00:05,2
28 65 LORENZONI Philippe/CATELLAGGI Julie Honda Civic Eg6 FN 2 11:56,4 +01:44,9 +00:01,6
29 33 MARCHINI Jean Paul/SIMONETTI Johanna Peugeot 206 Xs A 6K 11:57,5 +01:46,0 +00:01,1
30 54 DE MEYER Jean-Michel/FRATTI Eric Renault Clio Ragnotti N 3 11:57,8 +01:46,3 +00:00,3
31 3 MARTINI Jean-Philippe/FIESCHI Ambroise Peugeot 208 T16 R 5 12:01,2 +01:49,7 +00:03,4
32 42 GERONIMI Dominique/GARCIA Dann Citroën C2 Vts R 2 12:01,2 +01:49,7
33 44 ANTONA Julien/MANZAGGI Nicolas Citroën C2 R2 Max R 2 12:01,3 +01:49,8 +00:00,1
34 64 VENTURI Christian/PIERAZZI Arnaud Peugeot 205 Rallye FA 5 12:04,9 +01:53,4 +00:03,6
35 15 FILMONT Jérôme/VIGNOLI Jean-Francois Peugeot 306 S16 F2 14 12:08,7 +01:57,2 +00:03,8
36 62 SALINI Laura/PERETTI Myriam Citroën Saxo FA 6 12:09,1 +01:57,6 +00:00,4
37 68 NIVAGGIONI Jean-Toussaint/PONSOT Sébastien Citroën Saxo Vts FN 2 12:10,2 +01:58,7 +00:01,1
38 66 MAESTRACCI François/CASANOVA Sébastien Peugeot 106 FN 2 12:13,3 +02:01,8 +00:03,1
39 74 PINELLI Jean-Pierre/CANEGGIANI Dylan Peugeot 205 Rallye F2 12 12:29,4 +02:17,9 +00:16,1
40 6 GIOVANNANGELI Jean Baptiste/SANTARELLI Coralie BMW M3 FA 8 12:29,9 +02:18,4 +00:00,5
41 22 RENUCCI Jacques-Andre/RENUCCI Daniel Peugeot 205 Gti F2 14 12:30,6 +02:19,1 +00:00,7
42 39 VITTORI Marc-Antoine/PORCU Pascal-Andre Citroën C2 A 6K 12:38,7 +02:27,2 +00:08,1
43 35 MARTINETTI Jean-Laurent/DELCLAUD Christian Peugeot 206 Xs A 6K 12:44,4 +02:32,9 +00:05,7
44 61 RENUCCI Antoine/RENUCCI Anthony Peugeot 205 Rallye F2 13 12:56,2 +02:44,7 +00:11,8
45 67 CASABIANCA Jacques-Francois/PENNACCHIONI Marcel Peugeot 106 S16 FN 2 12:59,2 +02:47,7 +00:03,0
46 37 CASALTA Cyril/FERRACCI Nicolas Peugeot 206 FA 6K 13:01,1 +02:49,6 +00:01,9
47 23 ROBERT Alexandre/MILIANI Pascal Peugeot 205 F2 14 13:07,4 +02:55,9 +00:06,3
48 76 NICOLI Gérard/GALTIERI Marie-Flore Citroën Ax Sport FN 1 13:07,6 +02:56,1 +00:00,2
49 18 CASALTA Julien/CASALTA Celena Peugeot 206 F2 14 13:10,4 +02:58,9 +00:02,8
50 55 DE PERETTI Olivier/LEANDRI Romain Renault Clio Rs 2L Ragnotti N 3 13:10,8 +02:59,3 +00:00,4
51 17 CALISTRI Jean-Claude/CALISTRI Nicolas Renault 5 Gt Turbo F2 14 13:11,0 +02:59,5 +00:00,2
52 72 PAPON Jean-Noel/AMBROSI Céline Citroën Saxo Vts F2 12 13:14,1 +03:02,6 +00:03,1
53 9 CHIARONI Pascal/BRUNELLI Anne-Laure Renault Clio Sport Max R 3 13:34,7 +03:23,2 +00:20,6
54 36 GERONIMI Dominique-Noel/QUILICI Anthony Peugeot 106 S16 FA 6K 13:48,6 +03:37,1 +00:13,9
55 75 TROMBI Philippe/DELATTRE Judicael Peugeot 106 F2 12 13:52,6 +03:41,1 +00:04,0
56 38 CADDEO Allan/LOUVEL Jade Peugeot 206 Xs FA 6K 13:57,9 +03:46,4 +00:05,3
57 25 SALVADORI Paul-Joseph/CARRE Jessica Peugeot 205 GTI F2 14 14:00,5 +03:49,0 +00:02,6
58 24 ROSSINI Stefanu/ALTANA Ludovic Renault Clio F2 14 14:29,0 +04:17,5 +00:28,5
59 20 MISERAZZI Fabrice/ROS Patrick Peugeot 205 F2 14 14:38,9 +04:27,4 +00:09,9
60 48 PAOLI Benjamin/MOSSA Sebastien Peugeot 208 Vti R 2 15:39,0 +05:27,5 +01:00,1
61 47 GIANNINI Eric/GIANNINI Anthony Peugeot 208 R2 R 2 30:03,5 +19:52,0 +14:24,5
Clt Equipage Voiture Gr/Cl Temps Ecart 1er Ecart préc. Catégories
Commentaires: © PatricK Soft  
(Temps forfaitaires=couleur bleue)
Classés:61

Epreuve: Groupe: Catégorie:

 
Retour
Classement ES2-Masina - Aja 1 (14.200 km)